Lewis Run, PA

9:27 AM EST on February 25, 2017 (GMT -0500)
Bradford Regional

Weather History for KBFD - March, 2014

Change the Weather History Date:

Wednesday, March 19, 2014

  Actual Average Record
Temperature  
Mean Temperature 38 °F 33 °F  
Max Temperature 43 °F 43 °F 66 °F (2012)
Min Temperature 33 °F 23 °F -12 °F (1967)
Degree Days  
Heating Degree Days 27 27  
Month to date heating degree days 742 569  
Since 1 July heating degree days 6408 6139  
Cooling Degree Days 0 0  
Month to date cooling degree days 0 0  
Year to date cooling degree days 0 0  
Moisture  
Dew Point 26 °F    
Average Humidity 67    
Maximum Humidity 92    
Minimum Humidity 41    
Precipitation  
Precipitation 0.36 in 0.11 in 1.44 in (1975)
Month to date precipitation 1.18 1.94  
Year to date precipitation 4.71 7.58  
Sea Level Pressure  
Sea Level Pressure 29.88 in    
Wind  
Wind Speed 11 mph (SSE)    
Max Wind Speed 20 mph    
Max Gust Speed 29 mph    
Visibility 8 miles    
Events Rain    
T = Trace of Precipitation, MM = Missing Value Source: NWS Daily Summary

Daily Weather History Graph

Daily Weather History Graph

Search for Another Location

Airport or City:

Trip Planner

Search our weather history database for the weather conditions in past years. The results will help you decide how hot, cold, wet, or windy it might be!

Date:

Astronomy

Mar. 19, 2014 Rise Set
Actual Time 7:19 AM EDT 7:25 PM EDT
Civil Twilight 6:51 AM EDT 7:53 PM EDT
Nautical Twilight 6:19 AM EDT 8:25 PM EDT
Astronomical Twilight 5:46 AM EDT 8:59 PM EDT
Moon 10:45 PM EDT (3/19) 8:41 AM EDT (3/19)
Length of Visible Light 13h 01m
Length of Day
12h 06m
Waning Gibbous, 91% of the Moon is Illuminated
Mar 19
Waning Gibbous
Mar 23
Last Quarter
Mar 30
New
Apr 7
First Quarter
Apr 15
Full

Hourly Weather History & Observations

Time (EDT) Temp. Windchill Dew Point Humidity Pressure Visibility Wind Dir Wind Speed Gust Speed Precip Events Conditions
12:53 AM 34.0 °F 25.5 °F 12.9 °F 42% 30.06 in 10.0 mi SSE 11.5 mph 19.6 mph N/A   Overcast
1:23 AM 34.0 °F 26.0 °F 14.0 °F 44% 30.02 in 10.0 mi SSE 10.4 mph - N/A   Scattered Clouds
1:53 AM 34.0 °F 25.5 °F 14.0 °F 44% 30.06 in 10.0 mi SSE 11.5 mph 20.7 mph N/A   Mostly Cloudy
2:53 AM 34.0 °F 24.6 °F 16.0 °F 48% 30.05 in 10.0 mi SSE 13.8 mph 24.2 mph N/A   Overcast
3:43 AM 34.0 °F 25.0 °F 18.0 °F 52% 29.98 in 10.0 mi SE 12.7 mph 19.6 mph N/A   Scattered Clouds
3:53 AM 33.1 °F 23.9 °F 18.0 °F 54% 30.01 in 10.0 mi SE 12.7 mph - N/A   Clear
4:53 AM 34.0 °F 26.0 °F 19.9 °F 56% 30.01 in 10.0 mi SSE 10.4 mph 21.9 mph N/A   Mostly Cloudy
5:53 AM 34.0 °F 25.5 °F 21.0 °F 59% 30.01 in 10.0 mi SSE 11.5 mph 20.7 mph N/A   Mostly Cloudy
6:53 AM 33.1 °F 23.9 °F 19.0 °F 56% 30.00 in 10.0 mi SSE 12.7 mph 19.6 mph N/A   Mostly Cloudy
7:53 AM 33.1 °F 23.0 °F 18.0 °F 54% 30.00 in 10.0 mi SSE 15.0 mph 24.2 mph N/A   Overcast
8:53 AM 34.0 °F 23.8 °F 19.0 °F 54% 29.97 in 10.0 mi SSE 16.1 mph 28.8 mph N/A   Mostly Cloudy
9:53 AM 36.0 °F 27.1 °F 21.0 °F 55% 29.96 in 10.0 mi South 13.8 mph 21.9 mph N/A   Overcast
10:06 AM 36.0 °F 29.6 °F 21.9 °F 57% 29.91 in 10.0 mi SSE 8.1 mph 25.3 mph N/A   Overcast
10:53 AM 37.9 °F 30.0 °F 24.1 °F 57% 29.94 in 10.0 mi SSE 12.7 mph 24.2 mph N/A   Overcast
11:53 AM 41.0 °F 34.7 °F 26.1 °F 55% 29.93 in 10.0 mi SSE 10.4 mph 24.2 mph N/A   Overcast
12:53 PM 43.0 °F 36.0 °F 28.0 °F 56% 29.91 in 10.0 mi SSE 13.8 mph 23.0 mph N/A   Mostly Cloudy
1:00 PM 43.0 °F 36.4 °F 28.0 °F 56% 29.87 in 10.0 mi SSE 12.7 mph 23.0 mph N/A   Mostly Cloudy
1:51 PM 39.2 °F 31.6 °F 28.4 °F 65% 29.86 in 10.0 mi SSE 12.7 mph 21.9 mph N/A   Overcast
1:53 PM 39.9 °F 32.9 °F 28.9 °F 65% 29.89 in 10.0 mi South 11.5 mph 21.9 mph N/A   Overcast
2:53 PM 39.0 °F 31.0 °F 30.0 °F 70% 29.87 in 10.0 mi SSE 13.8 mph 24.2 mph N/A   Overcast
3:10 PM 37.9 °F 29.6 °F 30.0 °F 73% 29.82 in 10.0 mi SSE 13.8 mph 21.9 mph N/A   Overcast
3:23 PM 39.0 °F 31.0 °F 30.0 °F 70% 29.82 in 10.0 mi SSE 13.8 mph 20.7 mph N/A   Overcast
3:53 PM 37.9 °F 28.5 °F 30.9 °F 76% 29.84 in 10.0 mi SSE 17.3 mph 24.2 mph 0.00 in   Overcast
4:53 PM 37.0 °F 29.8 °F 30.9 °F 79% 29.81 in 8.0 mi SSE 10.4 mph - 0.00 in Rain Light Rain
5:12 PM 36.0 °F 29.0 °F 30.9 °F 82% 29.77 in 3.0 mi SSE 9.2 mph - 0.03 in Rain Light Rain
5:42 PM 36.0 °F 29.6 °F 32.0 °F 86% 29.78 in 3.0 mi SSE 8.1 mph - 0.07 in Rain Light Rain
5:53 PM 36.0 °F 31.1 °F 32.0 °F 86% 29.82 in 5.0 mi South 5.8 mph - 0.08 in Rain Rain
6:53 PM 35.1 °F 27.4 °F 32.0 °F 89% 29.79 in 6.0 mi SE 10.4 mph - 0.07 in Rain Light Rain
7:53 PM 36.0 °F 28.0 °F 33.1 °F 89% 29.78 in 5.0 mi SE 11.5 mph - 0.04 in Rain Light Rain
8:53 PM 36.0 °F 28.5 °F 33.1 °F 89% 29.77 in 10.0 mi SSE 10.4 mph 21.9 mph 0.02 in   Overcast
9:53 PM 36.0 °F 31.1 °F 34.0 °F 93% 29.76 in 6.0 mi South 5.8 mph - 0.02 in Rain Light Rain
10:12 PM 36.0 °F 33.3 °F 34.0 °F 93% 29.71 in 7.0 mi Variable 3.5 mph - 0.01 in Rain Light Rain
10:53 PM 37.0 °F 32.4 °F 34.0 °F 89% 29.73 in 8.0 mi Variable 5.8 mph - 0.03 in Rain Light Rain
11:49 PM 37.4 °F 34.9 °F 35.6 °F 93% 29.70 in 4.0 mi Variable 3.5 mph - 0.08 in Rain Rain
11:53 PM 37.9 °F 34.4 °F 36.0 °F 93% 29.73 in 4.0 mi SSW 4.6 mph - 0.08 in Rain Light Rain
11:59 PM 37.9 °F 35.5 °F 36.0 °F 93% 29.70 in 6.0 mi Variable 3.5 mph - 0.01 in Rain Light Rain